Time[GMT],dominant_wave_period[s](0m),mean_wave_direction[degrees](0m),max_wave_height[m](0m),significant_wave_height[m](0m),mean_wave_direction_spread[degrees](0m)
2021-05-28 16:00,10.0,31.50,1.41,1.01,33.00
2021-05-28 17:00,8.7,36.50,1.49,0.86,37.00
2021-05-28 18:00,9.5,39.50,1.46,1.02,36.00
2021-05-28 19:00,8.7,35.50,1.42,0.90,37.00
2021-05-28 20:00,8.7,37.50,1.74,0.90,35.00
2021-05-28 21:00,9.1,32.50,1.60,0.89,36.00
2021-05-28 22:00,9.1,28.50,1.84,0.88,34.00
2021-05-28 23:00,9.1,31.50,1.41,0.87,36.00
2021-05-29 00:00,9.5,30.50,1.56,0.86,37.00
2021-05-29 01:00,8.7,32.50,1.36,0.88,32.00
2021-05-29 02:00,8.3,30.50,1.57,0.87,32.00
2021-05-29 03:00,9.1,30.50,1.27,0.86,34.00
2021-05-29 04:00,8.3,31.50,1.53,0.97,32.00
2021-05-29 05:00,10.0,31.50,1.41,0.85,34.00
2021-05-29 06:00,9.5,29.50,1.36,0.86,35.00
2021-05-29 07:00,8.7,38.50,1.49,0.91,33.00
2021-05-29 08:00,8.7,30.50,1.68,0.93,30.00
2021-05-29 09:00,10.0,36.50,1.23,0.76,36.00
2021-05-29 10:00,9.1,28.50,1.25,0.82,35.00
2021-05-29 11:00,9.5,34.50,1.50,0.90,33.00
2021-05-29 12:00,9.5,39.50,1.32,0.81,36.00
2021-05-29 13:00,9.5,40.50,1.31,0.86,35.00
2021-05-29 14:00,9.5,41.50,1.62,0.94,36.00
2021-05-29 15:00,9.1,36.50,1.51,0.91,33.00
2021-05-29 16:00,9.1,40.50,1.49,0.91,33.00
2021-05-29 17:00,9.5,38.50,1.49,0.84,31.00
2021-05-29 18:00,9.1,43.50,1.35,0.80,36.00
2021-05-29 19:00,9.1,45.50,1.46,0.92,35.00
2021-05-29 20:00,9.1,46.50,1.30,0.90,33.00
2021-05-29 21:00,9.1,48.50,1.31,0.88,35.00
2021-05-29 22:00,8.3,45.50,1.35,0.89,33.00
2021-05-29 23:00,9.1,47.50,1.32,0.82,35.00
2021-05-30 00:00,9.1,48.50,1.23,0.79,34.00
2021-05-30 01:00,9.5,39.50,1.30,0.69,35.00
2021-05-30 02:00,9.1,41.50,1.30,0.78,32.00
2021-05-30 03:00,8.3,46.50,1.28,0.80,30.00
2021-05-30 04:00,8.7,45.50,1.39,0.88,29.00
2021-05-30 05:00,4.7,49.50,1.47,0.84,31.00
2021-05-30 06:00,9.1,44.50,1.24,0.85,31.00
2021-05-30 07:00,9.5,45.50,1.17,0.78,32.00
2021-05-30 08:00,4.8,46.50,1.28,0.81,32.00
2021-05-30 09:00,5.0,51.50,1.34,0.84,31.00
2021-05-30 10:00,9.5,53.50,1.32,0.93,30.00
2021-05-30 11:00,5.1,55.50,1.71,1.02,28.00
2021-05-30 12:00,4.8,58.50,1.72,1.00,29.00
2021-05-30 13:00,5.0,61.50,1.56,0.98,35.00
2021-05-30 14:00,5.6,65.50,1.73,1.05,32.00
2021-05-30 15:00,5.7,61.50,2.31,1.12,30.00
2021-05-30 16:00,5.3,67.50,1.78,1.19,29.00
2021-05-30 17:00,5.9,62.50,1.96,1.12,32.00
2021-05-30 18:00,5.7,58.50,1.64,1.05,29.00
2021-05-30 19:00,5.6,61.50,1.99,1.14,29.00
2021-05-30 20:00,5.6,54.50,1.84,1.05,33.00
2021-05-30 21:00,5.7,57.50,1.72,1.07,31.00
2021-05-30 22:00,5.6,54.50,1.62,0.94,34.00
2021-05-30 23:00,9.1,54.50,1.46,0.97,30.00
2021-05-31 00:00,8.7,52.50,1.22,0.85,33.00
2021-05-31 01:00,9.5,54.50,1.64,0.92,31.00
2021-05-31 02:00,8.0,52.50,1.80,0.97,30.00
2021-05-31 03:00,5.6,53.50,1.55,0.94,30.00
2021-05-31 04:00,5.6,53.50,1.91,1.06,29.00
2021-05-31 05:00,5.0,50.50,1.85,1.10,28.00
2021-05-31 06:00,5.4,52.50,1.99,1.11,28.00
2021-05-31 07:00,5.3,55.50,1.60,1.12,27.00
2021-05-31 08:00,5.4,51.50,2.08,1.14,29.00
2021-05-31 09:00,5.3,56.50,2.43,1.20,32.00
2021-05-31 10:00,5.4,57.50,1.86,1.10,31.00
2021-05-31 11:00,5.3,53.50,1.99,0.98,29.00
2021-05-31 12:00,5.6,55.50,1.34,0.92,30.00
2021-05-31 13:00,6.7,57.50,1.35,0.93,32.00
2021-05-31 14:00,5.7,59.50,1.62,0.98,34.00
2021-05-31 15:00,5.6,59.50,1.64,1.08,35.00
2021-05-31 16:00,5.7,63.50,1.71,1.13,33.00
2021-05-31 17:00,5.6,65.50,2.05,1.14,34.00
2021-05-31 18:00,5.3,54.50,1.52,1.05,35.00
2021-05-31 19:00,8.0,51.50,1.69,1.11,33.00
2021-05-31 20:00,5.3,46.50,1.63,1.09,35.00
2021-05-31 21:00,7.1,56.50,1.55,1.06,35.00
2021-05-31 22:00,7.4,56.50,1.78,1.08,31.00
2021-05-31 23:00,6.7,53.50,1.74,1.00,35.00
2021-06-01 00:00,4.5,50.50,1.99,1.04,31.00
2021-06-01 01:00,5.9,50.50,1.71,0.97,31.00
2021-06-01 02:00,7.1,53.50,1.79,1.03,32.00
2021-06-01 03:00,5.7,52.50,1.96,1.03,33.00
2021-06-01 04:00,5.6,53.50,1.88,1.12,32.00
2021-06-01 05:00,6.7,50.50,1.80,1.06,30.00
2021-06-01 06:00,5.3,52.50,1.99,1.10,33.00
2021-06-01 07:00,5.6,48.50,1.96,1.15,34.00
2021-06-01 08:00,7.7,51.50,1.96,1.10,32.00
2021-06-01 09:00,8.0,48.50,1.93,1.07,35.00
2021-06-01 10:00,7.1,50.50,1.86,1.16,31.00
2021-06-01 11:00,7.7,48.50,1.88,1.16,30.00
2021-06-01 12:00,7.7,49.50,1.81,1.19,28.00
2021-06-01 13:00,7.4,55.50,2.11,1.33,28.00
2021-06-01 14:00,7.4,55.50,2.27,1.52,27.00
2021-06-01 15:00,7.1,55.50,2.18,1.53,28.00
2021-06-01 16:00,6.3,58.50,2.84,1.60,28.00
2021-06-01 17:00,7.1,53.50,2.34,1.55,30.00
2021-06-01 18:00,7.7,57.50,2.11,1.29,30.00
2021-06-01 19:00,8.0,50.50,2.14,1.38,30.00
2021-06-01 20:00,7.1,53.50,1.92,1.41,30.00
2021-06-01 21:00,7.7,55.50,2.32,1.32,30.00
2021-06-01 22:00,7.7,54.50,1.72,1.16,33.00
2021-06-01 23:00,6.9,49.50,2.48,1.29,30.00
2021-06-02 00:00,7.1,47.50,2.48,1.21,29.00
2021-06-02 01:00,5.6,46.50,2.42,1.18,31.00
2021-06-02 02:00,6.1,50.50,1.95,1.35,29.00
2021-06-02 03:00,6.9,54.50,2.28,1.39,30.00
2021-06-02 04:00,7.4,54.50,2.17,1.30,33.00
2021-06-02 05:00,7.7,52.50,2.07,1.37,32.00
2021-06-02 06:00,8.0,54.50,2.41,1.43,28.00
2021-06-02 07:00,6.7,52.50,2.41,1.38,31.00
2021-06-02 08:00,6.3,54.50,2.34,1.38,32.00
2021-06-02 09:00,5.7,55.50,1.96,1.31,34.00
2021-06-02 10:00,6.3,55.50,1.96,1.28,32.00
2021-06-02 11:00,7.4,52.50,2.19,1.31,30.00
2021-06-02 12:00,7.1,50.50,1.76,1.13,35.00
2021-06-02 13:00,8.0,52.50,2.00,1.26,32.00
2021-06-02 14:00,7.7,54.50,1.77,1.26,31.00
2021-06-02 15:00,7.1,56.50,1.99,1.21,32.00
2021-06-02 16:00,7.1,54.50,1.72,1.11,32.00
2021-06-02 17:00,6.9,54.50,2.01,1.14,33.00
2021-06-02 18:00,6.7,53.50,1.74,1.08,34.00
2021-06-02 19:00,5.7,52.50,1.94,1.20,30.00
2021-06-02 20:00,5.6,50.50,1.56,1.10,32.00
2021-06-02 21:00,4.9,52.50,1.71,1.05,35.00
2021-06-02 22:00,5.7,51.50,1.81,1.11,32.00
2021-06-02 23:00,5.1,50.50,1.70,1.13,32.00
2021-06-03 00:00,7.1,50.50,1.81,1.07,34.00
2021-06-03 01:00,5.9,52.50,1.69,1.09,35.00
2021-06-03 02:00,6.7,56.50,1.84,1.16,34.00
2021-06-03 03:00,6.5,56.50,1.73,1.05,35.00
2021-06-03 04:00,5.9,57.50,1.88,1.17,32.00
2021-06-03 05:00,6.3,58.50,1.75,1.13,35.00
2021-06-03 06:00,5.7,54.50,2.45,1.31,30.00
2021-06-03 07:00,6.1,52.50,1.87,1.24,31.00
2021-06-03 08:00,5.6,56.50,2.06,1.16,32.00
2021-06-03 09:00,5.9,53.50,2.36,1.16,35.00
2021-06-03 10:00,5.9,56.50,2.27,1.19,34.00
2021-06-03 11:00,6.1,53.50,1.87,1.15,34.00
2021-06-03 12:00,6.3,55.50,2.24,1.22,32.00
2021-06-03 13:00,5.6,54.50,1.96,1.26,33.00
2021-06-03 14:00,5.4,61.50,2.03,1.28,32.00
2021-06-03 15:00,6.5,60.50,2.12,1.28,31.00
2021-06-03 16:00,6.5,58.50,2.52,1.41,32.00
2021-06-03 17:00,8.0,55.50,2.09,1.38,31.00
2021-06-03 18:00,5.7,55.50,2.25,1.30,30.00
2021-06-03 19:00,6.3,53.50,2.28,1.36,30.00
2021-06-03 20:00,8.3,49.50,2.71,1.33,32.00
2021-06-03 21:00,7.1,49.50,1.85,1.27,32.00
2021-06-03 22:00,6.3,47.50,2.11,1.31,32.00
2021-06-03 23:00,7.7,43.50,2.10,1.25,32.00
2021-06-04 00:00,8.3,46.50,2.13,1.22,32.00
2021-06-04 01:00,5.9,47.50,1.95,1.22,33.00
2021-06-04 02:00,8.3,46.50,2.09,1.24,31.00
2021-06-04 03:00,6.5,47.50,2.27,1.30,30.00
2021-06-04 04:00,6.3,46.50,2.10,1.23,32.00
2021-06-04 05:00,9.1,50.50,2.44,1.34,31.00
2021-06-04 06:00,9.1,47.50,2.37,1.34,33.00
2021-06-04 07:00,5.7,52.50,2.11,1.38,33.00
2021-06-04 08:00,8.3,57.50,2.60,1.56,31.00
2021-06-04 09:00,7.4,50.50,2.31,1.52,30.00
2021-06-04 10:00,8.7,50.50,1.94,1.42,32.00
2021-06-04 11:00,6.1,53.50,2.10,1.39,30.00
2021-06-04 12:00,8.7,46.50,2.55,1.39,31.00
2021-06-04 13:00,8.3,45.50,2.15,1.46,30.00
2021-06-04 14:00,6.9,51.50,2.30,1.52,29.00
2021-06-04 15:00,6.3,49.50,2.29,1.48,32.00
2021-06-04 16:00,8.0,53.50,2.86,1.41,34.00
2021-06-04 17:00,6.5,54.50,2.50,1.46,32.00
2021-06-04 18:00,6.9,52.50,2.59,1.49,31.00
2021-06-04 19:00,5.9,52.50,3.18,1.51,30.00
2021-06-04 20:00,6.9,52.50,2.07,1.51,28.00
2021-06-04 21:00,6.9,51.50,2.23,1.35,30.00
2021-06-04 22:00,8.3,49.50,2.17,1.53,30.00
2021-06-04 23:00,8.3,47.50,2.29,1.44,28.00
2021-06-05 00:00,8.3,50.50,2.33,1.44,28.00
2021-06-05 01:00,8.0,45.50,2.75,1.46,29.00
2021-06-05 02:00,6.1,50.50,2.17,1.35,28.00
2021-06-05 03:00,8.0,49.50,2.66,1.51,29.00
2021-06-05 04:00,8.7,49.50,2.73,1.55,30.00
2021-06-05 05:00,8.0,51.50,2.75,1.69,28.00
2021-06-05 06:00,7.7,49.50,2.28,1.48,29.00
2021-06-05 07:00,7.4,50.50,2.97,1.62,28.00
2021-06-05 08:00,7.7,50.50,2.37,1.49,29.00
2021-06-05 09:00,8.0,52.50,2.29,1.66,27.00
2021-06-05 10:00,8.7,50.50,2.51,1.56,30.00
2021-06-05 11:00,8.7,53.50,2.41,1.71,26.00
2021-06-05 12:00,8.3,53.50,2.55,1.71,26.00
2021-06-05 13:00,8.7,54.50,2.36,1.51,32.00
2021-06-05 14:00,6.5,51.50,2.28,1.46,31.00
2021-06-05 15:00,7.4,51.50,2.36,1.63,30.00
2021-06-05 16:00,8.0,54.50,3.18,1.68,26.00
2021-06-05 17:00,8.3,52.50,2.90,1.73,27.00
2021-06-05 18:00,8.7,51.50,2.61,1.64,30.00
2021-06-05 19:00,7.4,50.50,2.56,1.53,30.00
2021-06-05 20:00,6.3,53.50,3.14,1.76,28.00
2021-06-05 21:00,7.7,53.50,2.62,1.66,28.00
2021-06-05 22:00,7.4,50.50,2.32,1.64,25.00
2021-06-05 23:00,8.0,51.50,2.33,1.62,28.00
2021-06-06 00:00,7.7,51.50,2.23,1.45,28.00
2021-06-06 01:00,6.9,50.50,2.91,1.76,23.00
2021-06-06 02:00,7.7,52.50,2.48,1.63,28.00
2021-06-06 03:00,8.0,49.50,2.32,1.64,27.00
2021-06-06 04:00,8.3,50.50,2.51,1.55,27.00
2021-06-06 05:00,8.3,52.50,2.60,1.72,26.00
2021-06-06 06:00,8.0,54.50,2.94,1.68,27.00
2021-06-06 07:00,6.7,53.50,2.31,1.56,30.00
2021-06-06 08:00,8.0,49.50,2.23,1.52,30.00
2021-06-06 09:00,7.4,53.50,2.27,1.38,33.00
2021-06-06 10:00,6.7,50.50,2.23,1.58,31.00
2021-06-06 11:00,8.0,55.50,3.06,1.58,30.00
2021-06-06 12:00,7.7,54.50,2.40,1.47,33.00
2021-06-06 13:00,6.9,53.50,2.58,1.48,33.00
2021-06-06 14:00,8.0,51.50,2.20,1.47,30.00
2021-06-06 15:00,7.7,53.50,2.18,1.38,32.00
2021-06-06 16:00,8.0,53.50,2.68,1.40,30.00
2021-06-06 17:00,7.4,51.50,2.27,1.43,30.00
2021-06-06 18:00,6.5,54.50,2.21,1.47,32.00
2021-06-06 19:00,6.5,54.50,2.16,1.39,32.00
2021-06-06 20:00,7.1,54.50,2.29,1.37,32.00
2021-06-06 21:00,6.1,52.50,2.41,1.45,31.00
2021-06-06 22:00,6.3,52.50,2.13,1.46,31.00
2021-06-06 23:00,6.1,54.50,2.35,1.43,31.00
2021-06-07 00:00,6.1,47.50,2.40,1.52,29.00
2021-06-07 01:00,6.5,54.50,2.06,1.39,32.00
2021-06-07 02:00,6.7,51.50,2.80,1.38,32.00
2021-06-07 03:00,7.1,50.50,2.47,1.42,30.00
2021-06-07 04:00,6.1,50.50,2.22,1.49,28.00
2021-06-07 05:00,6.9,53.50,2.67,1.55,28.00
2021-06-07 06:00,6.7,55.50,2.78,1.42,32.00
2021-06-07 07:00,7.1,51.50,2.46,1.58,29.00
2021-06-07 08:00,7.1,53.50,2.27,1.48,30.00
2021-06-07 09:00,7.4,52.50,2.49,1.59,32.00
2021-06-07 10:00,8.0,52.50,2.60,1.50,29.00
2021-06-07 11:00,7.4,54.50,2.56,1.35,33.00
2021-06-07 12:00,7.1,53.50,2.45,1.45,33.00
2021-06-07 13:00,7.4,45.50,2.57,1.40,33.00
2021-06-07 14:00,7.1,50.50,2.27,1.45,30.00
2021-06-07 15:00,7.4,53.50,2.40,1.36,31.00
2021-06-07 16:00,7.4,49.50,2.28,1.42,29.00
2021-06-07 17:00,7.7,47.50,2.35,1.36,32.00
2021-06-07 18:00,8.0,49.50,2.24,1.35,33.00
2021-06-07 19:00,7.1,50.50,2.54,1.40,33.00
2021-06-07 20:00,6.9,50.50,2.16,1.39,33.00
2021-06-07 21:00,7.7,53.50,2.38,1.47,33.00
2021-06-07 22:00,6.1,49.50,2.40,1.41,34.00
2021-06-07 23:00,8.3,52.50,2.35,1.32,32.00
2021-06-08 00:00,8.0,52.50,2.49,1.35,29.00
2021-06-08 01:00,7.4,54.50,2.37,1.44,32.00
2021-06-08 02:00,7.7,51.50,2.20,1.31,33.00
2021-06-08 03:00,8.0,51.50,2.15,1.30,34.00
2021-06-08 04:00,7.7,54.50,1.87,1.34,33.00
2021-06-08 05:00,8.0,52.50,2.17,1.37,32.00
2021-06-08 06:00,8.0,52.50,2.19,1.35,30.00
2021-06-08 07:00,7.4,53.50,2.86,1.42,29.00
2021-06-08 08:00,7.1,51.50,2.50,1.38,30.00
2021-06-08 09:00,7.1,54.50,2.21,1.39,30.00
2021-06-08 10:00,7.7,53.50,2.31,1.43,30.00
2021-06-08 11:00,7.7,47.50,2.27,1.46,32.00
2021-06-08 12:00,6.7,52.50,2.50,1.67,31.00
2021-06-08 13:00,8.3,58.50,2.82,1.50,33.00
2021-06-08 14:00,8.0,59.50,2.98,1.59,31.00
2021-06-08 15:00,7.7,55.50,2.33,1.57,32.00
2021-06-08 16:00,8.3,58.50,2.32,1.47,31.00
2021-06-08 17:00,6.1,56.50,2.01,1.53,33.00
2021-06-08 18:00,6.3,55.50,2.67,1.66,29.00
2021-06-08 19:00,5.9,59.50,2.44,1.46,34.00
2021-06-08 20:00,6.9,56.50,2.63,1.60,30.00
2021-06-08 21:00,7.4,56.50,2.55,1.53,31.00
2021-06-08 22:00,6.9,51.50,2.44,1.59,31.00
2021-06-08 23:00,7.7,52.50,2.50,1.45,31.00
2021-06-09 00:00,6.7,52.50,2.33,1.40,31.00
2021-06-09 01:00,6.1,52.50,2.09,1.29,31.00
2021-06-09 02:00,7.7,52.50,2.11,1.31,33.00
2021-06-09 03:00,6.9,52.50,1.85,1.29,30.00
2021-06-09 04:00,6.7,52.50,2.25,1.28,31.00
2021-06-09 05:00,6.3,55.50,1.80,1.33,27.00
2021-06-09 06:00,7.1,53.50,2.14,1.32,32.00
2021-06-09 07:00,7.7,57.50,2.46,1.30,30.00
2021-06-09 08:00,6.3,55.50,2.28,1.44,29.00
2021-06-09 09:00,8.0,59.50,2.05,1.38,28.00
2021-06-09 10:00,6.5,55.50,2.20,1.29,31.00
2021-06-09 11:00,6.9,54.50,2.28,1.23,33.00
2021-06-09 12:00,6.5,54.50,2.04,1.24,31.00
2021-06-09 13:00,6.3,54.50,2.12,1.17,34.00
2021-06-09 14:00,8.0,58.50,2.07,1.25,33.00
2021-06-09 15:00,6.7,60.50,1.96,1.15,33.00
2021-06-09 16:00,7.7,53.50,2.36,1.22,36.00
2021-06-09 17:00,8.0,58.50,2.13,1.13,34.00
2021-06-09 18:00,6.3,58.50,1.76,1.17,34.00
2021-06-09 19:00,6.3,57.50,1.84,1.14,32.00
2021-06-09 20:00,8.0,56.50,2.00,1.20,27.00
2021-06-09 21:00,8.0,55.50,1.90,1.09,30.00
2021-06-09 22:00,8.3,61.50,1.60,1.04,34.00
2021-06-09 23:00,5.3,57.50,2.03,1.19,28.00
2021-06-10 00:00,5.9,56.50,1.77,1.08,29.00
2021-06-10 01:00,6.3,56.50,1.67,0.99,33.00
2021-06-10 02:00,5.1,59.50,1.77,1.10,30.00
2021-06-10 03:00,8.3,56.50,1.53,1.02,30.00
2021-06-10 04:00,5.7,57.50,1.57,0.99,28.00
2021-06-10 05:00,7.4,54.50,1.41,0.93,28.00
2021-06-10 06:00,8.3,56.50,1.69,0.90,30.00
2021-06-10 07:00,7.1,56.50,1.53,0.90,29.00
2021-06-10 08:00,8.7,55.50,1.30,0.90,30.00
2021-06-10 09:00,5.9,60.50,1.40,0.86,30.00
2021-06-10 10:00,8.0,58.50,1.52,0.94,31.00
2021-06-10 11:00,5.9,53.50,1.69,0.93,34.00
2021-06-10 12:00,8.3,58.50,1.43,1.00,33.00
2021-06-10 13:00,5.0,57.50,1.40,0.98,34.00
2021-06-10 14:00,7.7,51.50,1.63,0.99,36.00
2021-06-10 15:00,8.3,58.50,1.61,1.02,37.00
2021-06-10 16:00,7.4,47.50,1.45,0.95,35.00
2021-06-10 17:00,8.3,50.50,1.39,0.91,33.00
2021-06-10 18:00,7.7,49.50,1.55,0.91,32.00
2021-06-10 19:00,7.7,50.50,1.37,0.92,35.00
2021-06-10 20:00,8.3,53.50,1.47,0.96,34.00
2021-06-10 21:00,8.7,56.50,1.47,0.96,35.00
2021-06-10 22:00,8.0,54.50,1.57,1.04,28.00
2021-06-10 23:00,4.8,54.50,1.77,1.04,30.00
2021-06-11 00:00,5.7,55.50,1.75,0.99,29.00
2021-06-11 01:00,5.7,55.50,1.54,0.99,30.00
2021-06-11 02:00,5.4,53.50,1.52,0.99,29.00
2021-06-11 03:00,5.1,58.50,1.47,0.97,31.00
2021-06-11 04:00,7.7,55.50,1.70,0.88,33.00
2021-06-11 05:00,9.1,56.50,1.25,0.85,30.00
2021-06-11 06:00,5.9,54.50,1.54,0.89,27.00
2021-06-11 07:00,5.1,55.50,1.32,0.79,30.00
2021-06-11 08:00,8.0,57.50,1.27,0.80,29.00
2021-06-11 09:00,5.1,58.50,1.23,0.80,27.00
2021-06-11 10:00,4.8,52.50,1.19,0.76,28.00
2021-06-11 11:00,9.1,55.50,1.26,0.79,32.00
2021-06-11 12:00,9.1,54.50,1.37,0.75,32.00
2021-06-11 13:00,9.1,54.50,0.96,0.66,32.00
2021-06-11 14:00,8.7,54.50,1.08,0.72,30.00
2021-06-11 15:00,9.1,53.50,1.25,0.75,35.00
2021-06-11 16:00,9.1,54.50,1.05,0.73,34.00
2021-06-11 17:00,8.3,51.50,1.26,0.74,35.00
2021-06-11 18:00,9.5,54.50,1.37,0.73,37.00
2021-06-11 19:00,7.1,57.50,1.08,0.70,36.00
2021-06-11 20:00,7.7,52.50,1.31,0.71,34.00
2021-06-11 21:00,8.3,53.50,1.09,0.66,34.00
2021-06-11 22:00,8.3,55.50,1.01,0.69,34.00
2021-06-11 23:00,8.3,55.50,1.15,0.68,35.00
2021-06-12 00:00,6.3,58.50,1.11,0.73,33.00
2021-06-12 01:00,8.0,57.50,1.35,0.76,31.00
2021-06-12 02:00,9.1,55.50,1.17,0.77,31.00
2021-06-12 03:00,4.3,56.50,1.16,0.74,33.00
2021-06-12 04:00,8.7,55.50,1.37,0.80,28.00
2021-06-12 05:00,9.1,56.50,1.19,0.83,29.00
2021-06-12 06:00,4.8,58.50,1.45,0.86,28.00
2021-06-12 07:00,4.9,55.50,1.13,0.80,31.00
2021-06-12 08:00,5.4,56.50,1.18,0.78,30.00
2021-06-12 09:00,5.6,58.50,1.54,0.78,28.00
2021-06-12 10:00,6.1,58.50,1.26,0.78,25.00
2021-06-12 11:00,9.1,59.50,1.15,0.71,30.00
2021-06-12 12:00,5.1,60.50,1.20,0.72,28.00
2021-06-12 13:00,9.5,54.50,1.09,0.66,33.00
2021-06-12 14:00,8.7,57.50,1.05,0.71,29.00
2021-06-12 15:00,9.1,61.50,1.10,0.65,33.00
2021-06-12 16:00,9.1,56.50,1.12,0.69,32.00
2021-06-12 17:00,9.1,55.50,1.21,0.70,32.00
2021-06-12 18:00,9.1,58.50,1.16,0.66,37.00
2021-06-12 19:00,9.1,55.50,1.24,0.69,34.00
2021-06-12 20:00,8.3,57.50,1.04,0.67,31.00
2021-06-12 21:00,8.3,56.50,1.09,0.64,32.00
2021-06-12 22:00,8.0,60.50,0.96,0.64,33.00
2021-06-12 23:00,8.3,54.50,1.11,0.66,34.00
2021-06-13 00:00,8.7,59.50,0.93,0.65,35.00
2021-06-13 01:00,9.1,55.50,1.00,0.60,31.00
2021-06-13 02:00,9.1,57.50,0.99,0.59,30.00
2021-06-13 03:00,7.1,55.50,0.94,0.57,30.00
2021-06-13 04:00,8.7,55.50,0.96,0.65,26.00
2021-06-13 05:00,4.2,55.50,0.88,0.61,30.00
2021-06-13 06:00,4.3,53.50,1.18,0.67,27.00
2021-06-13 07:00,4.4,55.50,0.97,0.64,28.00
2021-06-13 08:00,4.1,55.50,0.95,0.65,29.00
2021-06-13 09:00,4.7,60.50,1.00,0.68,30.00
2021-06-13 10:00,4.4,59.50,1.26,0.70,30.00
2021-06-13 11:00,4.7,63.50,1.14,0.70,29.00
2021-06-13 12:00,8.3,60.50,1.10,0.72,28.00
2021-06-13 13:00,4.7,62.50,1.09,0.70,28.00
2021-06-13 14:00,5.0,62.50,1.21,0.64,33.00
2021-06-13 15:00,4.5,59.50,1.18,0.75,33.00
2021-06-13 16:00,4.5,63.50,1.32,0.79,29.00
2021-06-13 17:00,4.7,61.50,1.15,0.73,32.00
2021-06-13 18:00,4.3,59.50,1.75,0.78,33.00
2021-06-13 19:00,4.4,59.50,1.32,0.79,32.00
2021-06-13 20:00,4.2,61.50,1.23,0.73,34.00
2021-06-13 21:00,4.0,58.50,1.32,0.75,31.00
2021-06-13 22:00,4.8,56.50,1.21,0.73,31.00
2021-06-13 23:00,4.7,56.50,1.32,0.69,32.00
2021-06-14 00:00,4.9,57.50,1.12,0.69,30.00
2021-06-14 01:00,8.7,54.50,1.12,0.75,30.00
2021-06-14 02:00,4.4,59.50,1.40,0.75,29.00
2021-06-14 03:00,4.8,59.50,1.40,0.86,28.00
2021-06-14 04:00,4.8,61.50,1.69,0.91,28.00
2021-06-14 05:00,4.7,60.50,1.47,0.84,28.00
2021-06-14 06:00,4.5,58.50,1.35,0.85,26.00
2021-06-14 07:00,4.8,60.50,1.34,0.88,28.00
2021-06-14 08:00,4.9,57.50,1.25,0.86,27.00
2021-06-14 09:00,5.3,58.50,1.35,0.82,32.00
2021-06-14 10:00,4.9,59.50,1.48,0.94,26.00
2021-06-14 11:00,5.6,58.50,1.47,0.94,27.00
2021-06-14 12:00,5.4,59.50,1.54,0.91,27.00
2021-06-14 13:00,5.6,59.50,1.36,0.90,30.00
2021-06-14 14:00,5.6,64.50,1.37,0.97,30.00
2021-06-14 15:00,5.6,66.50,1.57,0.93,29.00
2021-06-14 16:00,5.9,63.50,1.61,0.93,28.00
2021-06-14 17:00,5.1,60.50,1.74,1.02,28.00
2021-06-14 18:00,5.6,60.50,1.73,1.07,27.00
2021-06-14 19:00,5.9,59.50,1.76,0.97,30.00
2021-06-14 20:00,5.9,63.50,1.53,0.97,29.00
2021-06-14 21:00,5.7,60.50,1.56,0.94,30.00
2021-06-14 22:00,5.3,61.50,1.73,0.96,29.00
2021-06-14 23:00,6.1,57.50,1.46,0.93,29.00
2021-06-15 00:00,5.4,60.50,1.32,0.93,30.00
2021-06-15 01:00,6.9,59.50,1.59,0.94,30.00
2021-06-15 02:00,6.5,60.50,1.52,0.96,28.00
2021-06-15 03:00,5.7,60.50,1.82,0.92,29.00
2021-06-15 04:00,5.3,61.50,1.70,0.98,28.00
2021-06-15 05:00,5.7,61.50,1.58,1.00,28.00
2021-06-15 06:00,5.6,60.50,1.71,0.99,29.00
2021-06-15 07:00,4.9,59.50,1.77,1.05,28.00
2021-06-15 08:00,5.3,59.50,1.76,1.06,28.00
2021-06-15 09:00,5.7,59.50,1.57,1.02,30.00
2021-06-15 10:00,6.3,61.50,1.62,1.00,30.00
2021-06-15 11:00,6.7,63.50,1.83,1.09,34.00
2021-06-15 12:00,5.7,64.50,2.01,1.06,33.00
2021-06-15 13:00,6.1,60.50,1.79,1.15,28.00
2021-06-15 14:00,6.1,66.50,2.06,1.25,29.00
2021-06-15 15:00,5.9,60.50,1.91,1.14,27.00
2021-06-15 16:00,5.7,61.50,2.11,1.08,29.00
2021-06-15 17:00,5.9,63.50,1.93,1.18,27.00
2021-06-15 18:00,6.1,62.50,1.91,1.14,28.00
2021-06-15 19:00,6.5,64.50,1.88,1.16,28.00
2021-06-15 20:00,6.3,61.50,1.85,1.15,28.00
2021-06-15 21:00,5.4,63.50,1.98,1.22,27.00
2021-06-15 22:00,5.4,60.50,1.97,1.28,25.00
2021-06-15 23:00,6.3,59.50,1.95,1.16,25.00
2021-06-16 00:00,5.6,60.50,1.66,1.06,28.00
2021-06-16 01:00,5.9,61.50,1.46,0.99,29.00
2021-06-16 02:00,6.9,64.50,1.83,1.10,28.00
2021-06-16 03:00,8.0,60.50,1.90,1.19,28.00
2021-06-16 04:00,5.0,61.50,2.23,1.11,26.00
2021-06-16 05:00,7.4,63.50,1.65,1.00,28.00
2021-06-16 06:00,6.7,61.50,1.92,1.12,26.00
2021-06-16 07:00,5.0,60.50,1.90,1.14,27.00
2021-06-16 08:00,5.7,63.50,1.69,0.98,29.00
2021-06-16 09:00,5.6,63.50,1.91,1.13,28.00
2021-06-16 10:00,5.7,67.50,1.68,1.11,30.00
2021-06-16 11:00,5.7,64.50,2.62,1.36,31.00
2021-06-16 12:00,5.6,62.50,2.24,1.39,27.00
2021-06-16 13:00,5.6,66.50,2.02,1.28,31.00
2021-06-16 14:00,6.1,65.50,1.97,1.33,28.00
2021-06-16 15:00,6.7,65.50,2.36,1.36,32.00
2021-06-16 16:00,7.1,62.50,2.24,1.32,29.00
2021-06-16 17:00,6.3,62.50,2.45,1.37,30.00
2021-06-16 18:00,6.1,65.50,2.23,1.27,32.00
2021-06-16 19:00,6.1,63.50,1.84,1.21,31.00
2021-06-16 20:00,6.1,60.50,2.44,1.36,28.00
2021-06-16 21:00,6.3,62.50,2.33,1.28,28.00
2021-06-16 22:00,6.7,60.50,1.84,1.23,29.00
2021-06-16 23:00,6.3,60.50,1.85,1.27,31.00
2021-06-17 00:00,8.3,58.50,1.83,1.28,28.00
2021-06-17 01:00,6.7,59.50,2.00,1.31,29.00
2021-06-17 02:00,6.1,62.50,2.09,1.31,30.00
2021-06-17 03:00,6.9,60.50,1.89,1.23,29.00
2021-06-17 04:00,5.9,64.50,1.89,1.34,29.00
2021-06-17 05:00,6.7,59.50,2.30,1.32,27.00
2021-06-17 06:00,6.7,59.50,2.40,1.28,32.00
2021-06-17 07:00,6.3,62.50,2.44,1.44,28.00
2021-06-17 08:00,6.3,62.50,2.09,1.29,32.00
2021-06-17 09:00,6.9,58.50,2.32,1.39,26.00
2021-06-17 10:00,6.7,65.50,2.18,1.38,32.00
2021-06-17 11:00,7.1,58.50,2.25,1.37,29.00
2021-06-17 12:00,7.1,59.50,2.16,1.39,28.00
2021-06-17 13:00,5.7,58.50,2.15,1.39,26.00
2021-06-17 14:00,5.7,57.50,2.02,1.32,28.00
2021-06-17 15:00,5.7,58.50,1.98,1.33,29.00
2021-06-17 16:00,6.1,54.50,2.39,1.24,31.00
2021-06-17 17:00,6.3,58.50,1.95,1.27,27.00
2021-06-17 18:00,8.7,61.50,1.99,1.22,29.00
2021-06-17 19:00,6.9,61.50,1.81,1.18,28.00
2021-06-17 20:00,8.7,58.50,2.02,1.18,33.00
2021-06-17 21:00,8.3,57.50,1.82,1.13,30.00
2021-06-17 22:00,8.0,57.50,1.85,1.21,27.00
2021-06-17 23:00,5.1,56.50,1.76,1.14,28.00
2021-06-18 00:00,6.3,58.50,2.09,1.32,26.00
2021-06-18 01:00,5.9,60.50,2.24,1.25,28.00
2021-06-18 02:00,5.9,61.50,2.05,1.30,26.00
2021-06-18 03:00,7.7,59.50,1.84,1.17,26.00
2021-06-18 04:00,7.7,61.50,1.77,1.20,25.00
2021-06-18 05:00,7.4,61.50,1.91,1.32,23.00
2021-06-18 06:00,6.9,62.50,2.48,1.42,22.00
2021-06-18 07:00,6.3,61.50,2.02,1.27,22.00
2021-06-18 08:00,8.7,61.50,2.09,1.41,23.00
2021-06-18 09:00,8.3,60.50,2.59,1.29,25.00
2021-06-18 10:00,8.0,58.50,1.90,1.24,25.00
2021-06-18 11:00,6.5,60.50,1.96,1.24,26.00
2021-06-18 12:00,7.1,58.50,1.87,1.27,25.00
2021-06-18 13:00,9.5,60.50,1.98,1.28,25.00
2021-06-18 14:00,7.1,60.50,2.28,1.30,26.00
2021-06-18 15:00,7.7,63.50,2.46,1.19,28.00
2021-06-18 16:00,6.9,62.50,2.14,1.17,31.00
2021-06-18 17:00,6.3,63.50,2.27,1.20,28.00
2021-06-18 18:00,6.9,63.50,1.82,1.18,28.00
2021-06-18 19:00,6.9,59.50,1.72,1.08,29.00
2021-06-18 20:00,6.5,58.50,1.71,1.09,29.00
2021-06-18 21:00,8.3,58.50,2.11,1.12,27.00
2021-06-18 22:00,5.7,53.50,1.84,1.02,30.00
2021-06-18 23:00,6.9,59.50,1.61,1.09,29.00
2021-06-19 00:00,6.5,58.50,1.48,1.05,30.00
2021-06-19 01:00,6.9,59.50,1.52,0.95,29.00
2021-06-19 02:00,6.5,61.50,2.34,1.02,28.00
2021-06-19 03:00,6.3,61.50,1.84,1.12,28.00
2021-06-19 04:00,7.1,60.50,1.74,1.08,27.00
2021-06-19 05:00,7.1,59.50,1.64,1.09,26.00
2021-06-19 06:00,6.5,61.50,2.32,1.25,25.00
2021-06-19 07:00,6.5,59.50,2.10,1.28,25.00
2021-06-19 08:00,6.3,62.50,1.95,1.13,28.00
2021-06-19 09:00,6.5,60.50,1.93,1.25,27.00
2021-06-19 10:00,6.1,60.50,1.80,1.12,28.00
2021-06-19 11:00,6.3,64.50,1.97,1.20,28.00
2021-06-19 12:00,6.9,63.50,1.84,1.15,30.00
2021-06-19 13:00,6.3,66.50,1.95,1.15,29.00
2021-06-19 14:00,6.7,65.50,2.10,1.04,30.00
2021-06-19 15:00,5.4,67.50,1.62,1.14,29.00
2021-06-19 16:00,6.5,65.50,1.71,1.16,28.00
2021-06-19 17:00,6.7,64.50,2.34,1.18,32.00
2021-06-19 18:00,6.7,62.50,1.86,1.12,35.00
2021-06-19 19:00,6.3,58.50,1.73,1.14,33.00
2021-06-19 20:00,7.1,65.50,1.60,1.10,37.00
2021-06-19 21:00,6.5,60.50,2.02,1.17,32.00
2021-06-19 22:00,6.1,58.50,1.89,1.23,39.00
2021-06-19 23:00,5.9,58.50,2.05,1.25,34.00
2021-06-20 00:00,5.9,59.50,2.18,1.23,34.00
2021-06-20 01:00,5.7,64.50,1.79,1.22,30.00
2021-06-20 02:00,7.1,56.50,1.60,1.06,34.00
2021-06-20 03:00,6.1,64.50,2.12,1.21,33.00
2021-06-20 04:00,6.3,61.50,2.17,1.20,31.00